Regional Weather Roundup
Issued by NWS

Home | Current Version | Previous Version | Graphics & Text | Print | Product List | Glossary On
Versions: 1 2 3 4 5 6 7 8 9 10 11 12 13 14 15 16 17 18 19 20 21 22 23 24 25 26 27
000
ASUS45 KPSR 212210
RWRAZ

ARIZONA HOURLY REGIONAL WEATHER ROUNDUP
NATIONAL WEATHER SERVICE PHOENIX AZ
300 PM MST WED FEB 21 2018

NOTE: FAIR INDICATES FEW OR NO CLOUDS BELOW 12,000 FEET WITH NO
SIGNIFICANT WEATHER AND/OR OBSTRUCTIONS TO VISIBILITY.

AZZ001>003-036-212300-
NORTHWEST ARIZONA

CITY           SKY/WX    TMP DP  RH WIND       PRES   REMARKS
BULLHEAD CITY  CLOUDY    57   0   9 S5        30.09F
KINGMAN        CLOUDY    44   4  19 SW3       30.04F
$$

AZZ004>008-015-016-018-212300-
NORTH CENTRAL ARIZONA

CITY           SKY/WX    TMP DP  RH WIND       PRES   REMARKS
GRAND CANYON   CLOUDY    32   4  30 SW13G22   29.98S WCI  22
WILLIAMS       PTSUNNY   34   5  29 S8G24     29.95F WCI  27
PRESCOTT       PTSUNNY   42   0  17 W13G21    29.99F
FLAGSTAFF      PTSUNNY   31  11  43 SW13G23   29.96F WCI  21
PAYSON         FAIR      43  16  33 S10G17    29.99F
PAGE           PTSUNNY   40   9  28 E3        30.01F
$$

AZZ009>014-017-212300-
NORTHEAST ARIZONA

CITY           SKY/WX    TMP DP  RH WIND       PRES   REMARKS
WINSLOW        CLOUDY    51  13  21 SW12G21   29.95F
SAINT JOHNS    PTSUNNY   51  19  28 SW14G20   29.93F
WINDOW ROCK    PTSUNNY   40  20  44 S13G24    29.96F WCI  32
SHOW LOW       FAIR      43  21  42 SW25G32   29.96F
$$

AZZ540-542>544-546-548-212300-
GREATER PHOENIX AREA

CITY           SKY/WX    TMP DP  RH WIND       PRES   REMARKS
PHOENIX        PTSUNNY   59  14  17 W5G18     30.03F
BUCKEYE        FAIR      59   3  10 W6        30.06F
GLENDALE       MOSUNNY   61  10  13 SE7       30.06F
LUKE AFB       FAIR      59  10  14 S8        30.03F
DEER VALLEY    FAIR      56  13  18 S9        30.03F
SCOTTSDALE     FAIR      57  17  21 VRB5      30.04F
MESA-FALCON    MOSUNNY   57  18  21 SW8G18      N/A
MESA-GATEWAY   PTSUNNY   57  18  21 SW8G17    30.05F
CHANDLER       PTSUNNY   59  14  17 SW8       30.04F
$$

AZZ539-553-212300-
SOUTHWEST MARICOPA COUNTY AND PINAL COUNTY

CITY           SKY/WX    TMP DP  RH WIND       PRES   REMARKS
CASA GRANDE      N/A     57  18  21 W12       30.04F
GILA BEND      PTSUNNY   59   5  11 W8        30.04F
$$

AZZ503-504-507>509-212300-
SOUTHEAST ARIZONA

CITY           SKY/WX    TMP DP  RH WIND       PRES   REMARKS
TUCSON         FAIR      61  27  27 NW8       30.01F
DAVIS-MONTHAN  FAIR      61  26  26 W10       30.00F
RYAN FIELD     SUNNY     61  28  29 SW10G16   30.03F
NOGALES        FAIR      56  28  34 S15G21    30.01F
SIERRA VISTA   FAIR      57  18  22 SW21      30.02F
DOUGLAS        FAIR      60  26  27 SW18G24   30.00F
SAFFORD        FAIR      59  29  31 SW9       29.96F
$$

AZZ532-212300-
SOUTHWEST ARIZONA

CITY           SKY/WX    TMP DP  RH WIND       PRES   REMARKS
YUMA           FAIR      60   6  11 MISG      30.08F
$$

CAZ041-043-047-048-061-525>527-560>570-212300-
SOUTHERN CALIFORNIA

CITY           SKY/WX    TMP DP  RH WIND       PRES   REMARKS
DOWNTOWN L.A.  PTSUNNY   60  28  29 MISG      30.10S
L.A. AIRPORT   FAIR      59  32  36 W16       30.11F
SAN DIEGO      FAIR      59  36  42 SW8       30.14F
BURBANK        FAIR      58  14  17 W8        30.07F
ONTARIO        PTSUNNY   55  20  25 VRB5      30.09F
RIVERSIDE      FAIR      55  20  25 W7        30.09F
PALM SPRINGS   FAIR      62  16  16 S6        30.08F
EL CENTRO NAS  PTSUNNY   62  17  17 VRB6      30.09F
IMPERIAL       PTSUNNY   62  20  19 NW5       30.07F
BLYTHE         FAIR      60   5  11 CALM      30.08F
NEEDLES        PTSUNNY   58   0   9 VRB5      30.09F
$$

NVZ020-UTZ003-212300-
SOUTHERN NEVADA-UTAH

CITY           SKY/WX    TMP DP  RH WIND       PRES   REMARKS
LAS VEGAS      PTSUNNY   49   7  18 NE5       30.08F
SALT LAKE CITY FAIR      32  12  43 N8        30.10F WCI  25
$$

NMZ009-TXZ055-212300-
NEW MEXICO-WEST TEXAS

CITY           SKY/WX    TMP DP  RH WIND       PRES   REMARKS
ALBUQUERQUE    PTSUNNY   51  24  34 S13G23    29.99F
EL PASO        FAIR      61  29  29 SE12      30.01F
$$


........................KEY........................
SKY/WX - SKY CONDITION/WEATHER
TMP    - TEMPERATURE IN FAHRENHEIT
DP     - DEW POINT IN FAHRENHEIT
RH     - RELATIVE HUMIDITY IN PERCENT
WIND   - DIRECTION AND SPEED IN MILES PER HOUR (MPH)
VRB    - VARIABLE WIND DIRECTION
PRES   - MEAN SEA LEVEL PRESSURE IN INCHES OF MERCURY
         F - FALLING PRESSURE   R - RISING PRESSURE
         S - STEADY PRESSURE
VSB    - VISIBILITY IN MILES
HX     - HEAT INDEX IN FAHRENHEIT
WCI    - WIND CHILL INDEX IN FAHRENHEIT
TC     - TEMPERATURE IN CELSIUS WHICH IS ALSO KNOWN AS
         TEMPERATURE IN CENTIGRADE
AFB    - AIR FORCE BASE
         LUKE AFB IS LUKE AIR FORCE BASE
         DAVIS-MONTHAN IS DAVIS-MONTHAN AIR FORCE BASE
NAS    - NAVAL AIR STATION
         EL CENTRO NAS IS EL CENTRO NAVAL AIR STATION
N/A    - NOT AVAILABLE





USA.gov is the U.S. government's official web portal to all federal, state and local government web resources and services.